(240140) = 2002 JN102

Discovered at Socorro on 2002-05-09 by LINEAR.

Orbit

Orbit type: Main Belt

Note: WebGL enabled browser required.

epoch2024-03-31.0
epoch JD2460400.5
perihelion date2022-08-21.41538
perihelion JD2459812.91538
argument of perihelion (°)182.71081
ascending node (°)68.42292
inclination (°)13.18060
eccentricity0.1134369
perihelion distance (AU)2.2445185
Tisserand w.r.t. Jupiter3.4
ΔV w.r.t. Earth (km/sec)10.2
semimajor axis (AU)2.5317075
mean anomaly (°)143.76527
mean daily motion (°/day)0.24467160
aphelion distance (AU)2.819
period (years)4.03
P-vector [x]-0.32451900
P-vector [y]-0.86348105
P-vector [z]-0.38611901
Q-vector [x]0.92180555
Q-vector [y]-0.19719860
Q-vector [z]-0.33374726
absolute magnitude16.29
phase slope0.15
uncertainty0
referenceMPEC 2024-C93
observations used581
oppositions15
arc length (days)7966
first opposition used2002
last opposition used2024
residual rms (arc-secs)0.70
perturbers coarse indicatorM-v
perturbers precise indicator003Ek
first observation date used2002-03-20.0
last observation date used2024-01-10.0
computer nameMPCLINUX
JD of orbit computation2456966.843276
perihelion JD uncertainty (days)9.5032E-05
argument of perihelion uncertainty (°)3.0232E-05
ascending node uncertainty (°)1.7312E-05
inclination uncertainty (°)7.6554E-06
eccentricity uncertainty 8.0648E-08
perihelion distance uncertainty (AU)2.0740E-07
Minimum Orbit Intersection Distances (in AU)
for orbit epoch: 2460200.5, reference: E2024-C93
Mercury1.77635
Venus1.51666
Earth1.22742
Mars0.71815
Jupiter2.20701
Saturn6.25376
Uranus15.968
Neptune27.0727

Observations

594 total observations over interval: 2002 03 20.47650 – 2024 01 10.07725
These data are available for download (format description).

Date (UT) J2000 RA J2000 Dec Magn Location Ref
2002 03 20.47650 16 03 07.40 -11 06 19.6 20.4 V 691 – Steward Observatory, Kitt Peak-Spacewatch MPS 57744
2002 03 20.49803 16 03 07.87 -11 06 22.4 20.3 V 691 – Steward Observatory, Kitt Peak-Spacewatch MPS 57744
2002 03 20.51934 16 03 08.32 -11 06 25.4 20.5 V 691 – Steward Observatory, Kitt Peak-Spacewatch MPS 57744
2002 05 04.30107 15 49 18.36 -12 55 30.2 19.4   644 – Palomar Mountain/NEAT MPS 57744
2002 05 04.36373 15 49 14.64 -12 55 41.9 18.5   644 – Palomar Mountain/NEAT MPS 57744
2002 05 04.42703 15 49 10.87 -12 55 53.4 19.3   644 – Palomar Mountain/NEAT MPS 57744
2002 05 05.35708 15 48 17.47 -12 58 47.9 19.1 V 291 – LPL/Spacewatch II MPS 57744
2002 05 05.37758 15 48 16.26 -12 58 51.9 19.2 V 291 – LPL/Spacewatch II MPS 57744
2002 05 05.40397 15 48 14.63 -12 58 56.6 19.7 V 291 – LPL/Spacewatch II MPS 57744
2002 05 09.34579 15 44 17.97 -13 11 44.0 18.4   704 – Lincoln Laboratory ETS, New Mexico MPS 55473
2002 05 09.35788 15 44 17.17 -13 11 46.5 18.7   704 – Lincoln Laboratory ETS, New Mexico MPS 55473
2002 05 09.36996 15 44 16.43 -13 11 49.4 18.8   704 – Lincoln Laboratory ETS, New Mexico MPS 55473
2002 05 09.38217 15 44 15.65 -13 11 51.2 18.6   704 – Lincoln Laboratory ETS, New Mexico MPS 55473
2002 05 09.39434 15 44 14.83 -13 11 54.8 18.9   704 – Lincoln Laboratory ETS, New Mexico MPS 55473
2002 05 16.29951 15 36 54.60 -13 36 18.4 18.6   704 – Lincoln Laboratory ETS, New Mexico MPS 55473
2002 05 16.31443 15 36 53.60 -13 36 21.8 18.6   704 – Lincoln Laboratory ETS, New Mexico MPS 55473
2002 05 16.32937 15 36 52.58 -13 36 24.5 18.9   704 – Lincoln Laboratory ETS, New Mexico MPS 55473
2002 05 16.34445 15 36 51.57 -13 36 28.5 18.8   704 – Lincoln Laboratory ETS, New Mexico MPS 55473
2002 05 16.35940 15 36 50.55 -13 36 31.9 19.3   704 – Lincoln Laboratory ETS, New Mexico MPS 55473
2002 06 03.24699 15 18 25.28 -14 52 33.7 18.8   644 – Palomar Mountain/NEAT MPS 57744
2002 06 03.27221 15 18 23.85 -14 52 40.9 19.1   644 – Palomar Mountain/NEAT MPS 57744
2002 06 03.31738 15 18 21.30 -14 52 53.7 19.3   644 – Palomar Mountain/NEAT MPS 57744
2002 06 05.22979 15 16 40.00 -15 02 08.5 18.9   704 – Lincoln Laboratory ETS, New Mexico MPS 57744
2002 06 05.24320 15 16 39.30 -15 02 13.7 19.2   704 – Lincoln Laboratory ETS, New Mexico MPS 57744
2002 06 05.27004 15 16 37.87 -15 02 20.8 19.7   704 – Lincoln Laboratory ETS, New Mexico MPS 57744
2002 06 05.28504 15 16 36.98 -15 02 25.8 18.9   704 – Lincoln Laboratory ETS, New Mexico MPS 57744
2002 06 06.25092 15 15 47.93 -15 07 10.8 19.4   704 – Lincoln Laboratory ETS, New Mexico MPS 57744
2002 06 06.27887 15 15 46.31 -15 07 18.7 19.1   704 – Lincoln Laboratory ETS, New Mexico MPS 57744
2002 06 06.29282 15 15 45.49 -15 07 23.4 19.3   704 – Lincoln Laboratory ETS, New Mexico MPS 57744
2002 06 11.24183 15 11 55.79 -15 32 40.3 19.5   644 – Palomar Mountain/NEAT MPS 57744
2002 06 11.26256 15 11 54.87 -15 32 46.9 19.1   644 – Palomar Mountain/NEAT MPS 57744
2002 06 11.26784 15 11 54.71 -15 32 48.8 19.2   704 – Lincoln Laboratory ETS, New Mexico MPS 57744
2002 06 11.28154 15 11 54.03 -15 32 53.2 19.7   704 – Lincoln Laboratory ETS, New Mexico MPS 57744
2002 06 11.29404 15 11 53.44 -15 32 56.7 19.1   644 – Palomar Mountain/NEAT MPS 57744
2002 06 11.29532 15 11 53.38 -15 32 56.0 19.2   704 – Lincoln Laboratory ETS, New Mexico MPS 57744
2002 06 16.18806 15 08 47.27 -15 59 27.3 19.3   644 – Palomar Mountain/NEAT MPS 57744
2002 06 16.20890 15 08 46.55 -15 59 34.2 20.2   644 – Palomar Mountain/NEAT MPS 57745
2002 06 16.22968 15 08 45.75 -15 59 40.9 20.5   644 – Palomar Mountain/NEAT MPS 57745
2006 04 23.37455 15 42 29.43 -10 30 00.4 19.1   704 – Lincoln Laboratory ETS, New Mexico MPS 169867
2006 04 23.38513 15 42 28.87 -10 29 59.9 18.8   704 – Lincoln Laboratory ETS, New Mexico MPS 169867
2006 04 23.39571 15 42 28.37 -10 30 01.6 18.9   704 – Lincoln Laboratory ETS, New Mexico MPS 169867
2006 04 24.33996 15 41 43.99 -10 31 57.9 18.6   704 – Lincoln Laboratory ETS, New Mexico MPS 169867
2006 04 24.35189 15 41 43.45 -10 31 59.1 19.0   704 – Lincoln Laboratory ETS, New Mexico MPS 169867
2006 04 24.35817 15 41 43.12 -10 32 00.4 18.3   704 – Lincoln Laboratory ETS, New Mexico MPS 169867
2006 04 24.36329 15 41 42.90 -10 32 00.0 19.1   704 – Lincoln Laboratory ETS, New Mexico MPS 169867
2006 04 24.36891 15 41 42.50 -10 32 01.9 18.8   704 – Lincoln Laboratory ETS, New Mexico MPS 169867
2006 04 24.37966 15 41 42.00 -10 32 02.9 19.1   704 – Lincoln Laboratory ETS, New Mexico MPS 169867
2006 04 24.40123 15 41 40.97 -10 32 04.5 19.1   704 – Lincoln Laboratory ETS, New Mexico MPS 169867
2006 04 27.36609 15 39 12.45 -10 38 27.6 18.6   704 – Lincoln Laboratory ETS, New Mexico MPS 169867
2006 04 27.37665 15 39 11.80 -10 38 28.3 18.7   704 – Lincoln Laboratory ETS, New Mexico MPS 169867
2006 04 27.38724 15 39 11.22 -10 38 28.7 19.0   704 – Lincoln Laboratory ETS, New Mexico MPS 169867
2006 04 27.39862 15 39 10.65 -10 38 31.8 18.9   704 – Lincoln Laboratory ETS, New Mexico MPS 169867
2006 05 22.25215 15 13 43.94 -11 54 28.6   691 – Steward Observatory, Kitt Peak-Spacewatch MPS 171960
2006 05 22.26949 15 13 42.82 -11 54 32.7   691 – Steward Observatory, Kitt Peak-Spacewatch MPS 171960
2006 05 22.29027 15 13 41.47 -11 54 37.8   691 – Steward Observatory, Kitt Peak-Spacewatch MPS 171960
2006 05 24.34484 15 11 34.83 -12 03 01.7 18.6 V G96 – Mt. Lemmon Survey MPS 171960
2006 05 24.34992 15 11 34.51 -12 03 03.0 18.6 V G96 – Mt. Lemmon Survey MPS 171960
2006 05 24.35501 15 11 34.18 -12 03 04.3 18.7 V G96 – Mt. Lemmon Survey MPS 171960
2006 05 24.36008 15 11 33.86 -12 03 05.5 18.8 V G96 – Mt. Lemmon Survey MPS 171960
2006 05 25.21962 15 10 42.32 -12 06 42.4 18.6 R 644 – Palomar Mountain/NEAT MPS 171960
2006 05 25.24768 15 10 40.57 -12 06 49.8 19.2 R 644 – Palomar Mountain/NEAT MPS 171960
2006 05 25.26803 15 10 39.28 -12 06 54.8 18.8 R 644 – Palomar Mountain/NEAT MPS 171960
2006 05 25.27441 15 10 38.85 -12 06 55.5 18.7   704 – Lincoln Laboratory ETS, New Mexico MPS 171960
2006 05 25.28951 15 10 37.87 -12 06 58.5 19.1   704 – Lincoln Laboratory ETS, New Mexico MPS 171960
2006 05 25.31693 15 10 36.27 -12 07 06.3 18.7   704 – Lincoln Laboratory ETS, New Mexico MPS 171960
2006 05 25.33013 15 10 35.43 -12 07 11.1 18.9   704 – Lincoln Laboratory ETS, New Mexico MPS 171960
2006 06 19.23453 14 52 47.85 -14 18 58.5 19.8 V G96 – Mt. Lemmon Survey MPS 173856
2006 06 19.24280 14 52 47.67 -14 19 01.4 19.7 V G96 – Mt. Lemmon Survey MPS 173856
2006 06 19.25120 14 52 47.49 -14 19 04.8 19.4 V G96 – Mt. Lemmon Survey MPS 173856
2006 06 19.25977 14 52 47.28 -14 19 07.7 19.3 V G96 – Mt. Lemmon Survey MPS 173856
2007 10 19.27020 01 00 44.46 -11 29 36.2 20.3 V 703 – Catalina Sky Survey MPS 222423
2007 10 19.27838 01 00 43.99 -11 29 34.7 20.8 V 703 – Catalina Sky Survey MPS 222423
2007 10 19.28662 01 00 43.52 -11 29 34.9 19.7 V 703 – Catalina Sky Survey MPS 222423
2007 10 19.29482 01 00 43.12 -11 29 35.1 19.5 V 703 – Catalina Sky Survey MPS 222423
2009 04 20.17248 07 06 35.60 +33 23 23.8 21.6 V G96 – Mt. Lemmon Survey MPS 284252
2009 04 20.18000 07 06 36.18 +33 23 22.0 22.1 V G96 – Mt. Lemmon Survey MPS 284252
2009 04 20.18758 07 06 36.72 +33 23 20.7 22.1 V G96 – Mt. Lemmon Survey MPS 284252
2009 04 20.19517 07 06 37.33 +33 23 19.2 21.6 V G96 – Mt. Lemmon Survey MPS 284252
2010 04 09.41233 15 35 22.90 -08 10 27.8 19.4   704 – Lincoln Laboratory ETS, New Mexico MPS 322166
2010 04 09.43514 15 35 22.28 -08 10 29.7 19.6   704 – Lincoln Laboratory ETS, New Mexico MPS 322166
2010 04 09.44656 15 35 21.89 -08 10 29.9 19.3   704 – Lincoln Laboratory ETS, New Mexico MPS 322166
2010 04 09.45797 15 35 21.54 -08 10 30.1 19.3   704 – Lincoln Laboratory ETS, New Mexico MPS 322166
2010 04 10.38504 15 34 55.02 -08 11 19.9 19.7 V 691 – Steward Observatory, Kitt Peak-Spacewatch MPS 322166
2010 04 10.40270 15 34 54.44 -08 11 20.8 19.4 V 691 – Steward Observatory, Kitt Peak-Spacewatch MPS 322166
2010 04 10.42036 15 34 53.92 -08 11 21.3 20.5 V 691 – Steward Observatory, Kitt Peak-Spacewatch MPS 322166
2010 04 14.38315 15 32 41.55 -08 15 07.9 19.8 V 691 – Steward Observatory, Kitt Peak-Spacewatch MPS 322166
